Location: Unspecified
(0.0000°N, 0.0000°E)
Time: 18:18:55
(UTC+02:00)

GPS 2-15 Rocket1 - Visible Passes

Search period start: 23 July 2014 00:00
Search period end: 02 August 2014 00:00
Orbit: 628 x 681 km, 19.8° (Epoch: 23 July)

Date Brightness Start Highest point End Pass type
(mag) Time Alt. Az. Time Alt. Az. Time Alt. Az.
23 Jul 5.1 21:18:59 10° SSW 21:21:21 14° SSE 21:21:21 14° SSE visible
24 Jul 5.0 21:45:43 10° SW 21:47:46 19° SSW 21:47:46 19° SSW visible
25 Jul 5.0 20:29:54 10° SSW 20:32:50 16° SSE 20:35:44 10° SE visible
25 Jul 5.3 22:12:54 10° SW 22:14:14 18° SW 22:14:14 18° SW visible
26 Jul 4.4 20:56:46 10° SW 21:00:51 26° SSE 21:03:01 19° ESE visible
26 Jul 6.0 22:40:27 10° WSW 22:40:47 12° WSW 22:40:47 12° WSW visible
27 Jul 5.8 07:27:55 10° NNW 07:29:57 13° NNE 07:31:59 10° NE visible
27 Jul 3.5 21:24:02 10° SW 21:28:45 47° SSE 21:29:37 42° SE visible
28 Jul 3.2 21:51:39 10° WSW 21:56:16 79° WSW 21:56:16 79° WSW visible
29 Jul 5.7 06:38:56 10° NNW 06:41:18 14° NNE 06:43:40 10° NE visible
29 Jul 3.5 20:35:10 10° WSW 20:40:00 53° SSE 20:44:46 10° E visible
29 Jul 4.6 22:19:41 10° W 22:22:56 35° WNW 22:22:56 35° WNW visible
30 Jul 5.2 07:05:37 10° NW 07:09:18 23° NNE 07:13:01 10° ENE visible
30 Jul 3.3 21:02:51 10° WSW 21:07:49 79° NNW 21:11:49 15° ENE visible
30 Jul 5.9 22:48:13 10° WNW 22:49:36 16° WNW 22:49:36 16° WNW visible
31 Jul 5.5 05:52:08 15° N 05:52:39 15° NNE 05:55:20 10° NE visible
31 Jul 4.3 07:32:47 10° NW 07:37:11 42° NNE 07:41:38 10° E visible
31 Jul 4.3 21:30:59 10° W 21:35:38 41° NNW 21:38:28 21° NE visible
01 Aug 4.9 06:18:44 20° NNW 06:20:38 26° NNE 06:24:30 10° ENE visible
01 Aug 5.1 21:59:37 10° WNW 22:03:32 23° NNW 22:05:03 20° N visible
